Vertical_Velocity
-1 -0 1 -1 0 1 -1 -2 -3 -2 -2 1 -2 1 -2 1 -2 -3 -1 -0 -1 1
-1 -1 0 1 1 1 0 -1 -3 -5 -4 -3 0 -1 -5 -1 -1 1 -2 1 0 -0
-1 -1 -0 -0 0 1 1 -1 -3 -4 -2 -5 -7 -3 -1 1 1 -3 -1 -1 -0 -2
1 -0 0 0 1 -0 -1 -1 1 -2 -4 -2 1 -1 -2 -2 -0 -1 -1 -3 -1 -3
1 -0 1 1 0 0 -2 -0 -1 -4 -1 -2 -2 -1 1 -1 -1 -1 -2 -1 -1 -2
-0 1 1 1 -1 -0 1 1 -1 -2 -2 -4 -0 -2 -2 -0 2 1 -3 -5 0 -3
-1 -1 -1 1 3 0 2 1 -1 -0 1 -0 -3 -1 -1 -3 -5 -3 -2 1 1 -5
-0 0 1 2 2 2 1 2 1 -0 1 0 -1 -3 -2 -1 -1 -2 -3 -3 -3 -1
-0 0 0 1 1 -0 -1 1 -0 0 1 1 0 -0 -2 -1 -1 -1 -2 2 3 -0
0 -1 -0 -1 1 -1 -0 -0 0 1 -0 -0 1 1 1 -1 -1 -0 -2 -5 -2 1
-2 -1 -1 0 -0 1 -0 1 1 1 -0 -1 -0 -1 0 2 1 1 1 -2 -4 -7
-1 -1 -1 -2 -1 -1 -2 -0 1 1 1 0 -1 -1 -0 2 1 -1 1 2 0 -1
-1 -2 -2 -2 -1 -0 -2 -1 -2 -1 -1 0 -0 1 1 0 0 1 -1 -2 -1 1
-0 -1 -1 -3 -2 0 -0 -2 -0 1 1 1 1 -0 0 -0 0 -1 -1 -1 -1 -0
Height
5632 5629 5626 5623 5619 5616 5613 5610 5607 5603 5601 5598 5595 5593 5592 5590 5590 5589 5589 5589 5589 5588
5624 5621 5617 5614 5611 5608 5604 5601 5597 5594 5591 5587 5585 5584 5581 5580 5579 5578 5578 5578 5578 5578
5616 5613 5609 5607 5604 5601 5598 5595 5591 5587 5583 5580 5577 5574 5572 5570 5570 5569 5568 5568 5567 5567
5608 5606 5602 5599 5597 5595 5591 5588 5585 5581 5577 5573 5570 5567 5563 5561 5560 5559 5558 5556 5555 5554
5600 5598 5596 5593 5591 5588 5585 5582 5579 5576 5572 5568 5564 5560 5556 5553 5551 5549 5547 5545 5543 5541
5593 5591 5589 5587 5584 5581 5579 5576 5574 5570 5568 5564 5560 5555 5550 5546 5544 5542 5539 5536 5534 5533
5587 5584 5582 5580 5577 5574 5572 5570 5568 5565 5563 5559 5556 5551 5546 5542 5537 5533 5531 5529 5526 5527
5581 5577 5574 5572 5569 5567 5565 5563 5561 5560 5557 5554 5551 5547 5544 5540 5536 5532 5527 5522 5520 5520
5572 5569 5567 5565 5563 5560 5558 5556 5555 5554 5551 5549 5546 5543 5540 5537 5533 5530 5527 5523 5518 5514
5565 5562 5560 5558 5556 5554 5552 5550 5548 5547 5545 5543 5541 5538 5536 5534 5530 5527 5524 5521 5517 5514
5559 5556 5554 5552 5551 5548 5546 5544 5542 5540 5538 5537 5535 5534 5532 5530 5527 5525 5522 5519 5515 5512
5553 5550 5548 5546 5545 5543 5541 5539 5536 5534 5533 5531 5530 5528 5527 5525 5523 5521 5518 5516 5513 5511
5549 5546 5544 5543 5541 5538 5536 5534 5532 5530 5527 5525 5524 5522 5521 5519 5517 5515 5513 5511 5509 5507
5546 5543 5541 5539 5536 5534 5531 5528 5526 5524 5522 5520 5518 5516 5514 5512 5510 5508 5506 5505 5503 5501